Wind_Speed
33 33 33 33 34 34 35 35 34 33 35 36 35 34 34 33 33 32 32 32 32 32 31 31 31 30 30 29 29 30 30 30 30 30 31 31 32 32 33 34 36 36 37 38
34 34 34 35 35 36 36 36 35 35 35 37 36 35 34 34 34 33 33 33 32 32 32 32 32 32 31 31 30 29 30 30 30 30 31 31 31 32 34 34 36 36 36 36
36 35 35 36 37 37 37 37 37 37 36 37 38 37 35 35 35 35 34 34 33 32 32 33 33 33 33 32 31 30 30 30 30 30 31 31 31 32 33 34 35 35 36 37
37 36 37 37 38 38 38 37 37 37 37 37 37 38 35 34 35 35 35 34 33 33 32 32 32 33 33 32 32 31 31 31 31 31 31 31 31 32 33 33 34 35 36 37
36 36 36 37 36 36 36 35 36 36 37 37 36 37 35 34 34 34 35 35 34 34 33 33 32 32 33 33 33 32 32 32 32 32 32 32 32 32 33 33 34 35 37 38
36 36 36 35 35 34 35 34 35 35 36 37 34 36 35 34 33 32 33 34 34 34 33 33 33 33 33 33 33 33 33 33 32 33 33 32 32 33 34 34 35 36 36 37
36 35 35 35 34 34 33 33 34 34 36 37 35 36 35 33 32 32 32 33 33 33 33 33 33 33 34 33 33 33 33 33 33 33 33 33 33 33 33 34 34 35 36 36
36 35 35 34 34 33 32 33 34 35 36 36 35 36 34 32 32 31 32 33 33 33 33 34 34 33 34 34 34 34 34 33 33 33 34 34 33 33 34 34 34 33 34 36
36 36 35 34 33 32 32 32 32 33 35 35 34 34 33 31 31 30 30 31 32 32 32 33 34 34 33 33 34 34 34 33 33 33 33 34 33 33 34 34 34 34 34 34
36 36 34 34 33 32 32 31 31 31 33 34 33 32 31 30 29 28 29 30 30 32 32 33 33 33 33 33 33 33 34 34 34 33 33 33 33 33 34 34 34 34 34 35
36 36 35 34 33 32 31 31 32 32 31 32 32 31 29 29 28 28 28 29 30 30 31 32 32 32 33 33 33 33 33 34 33 33 33 33 33 34 34 34 33 33 34 35
35 36 35 34 33 32 32 32 31 32 31 31 31 31 28 27 28 28 28 29 30 30 31 32 33 33 33 33 33 34 34 33 33 33 33 34 34 34 34 33 33 33 33 34
33 33 33 33 32 32 32 32 32 32 32 31 31 30 29 28 28 28 28 29 30 30 31 32 34 34 34 34 34 34 34 34 33 33 34 34 34 34 34 34 34 34 34 34
32 33 32 32 31 31 32 32 33 33 35 34 32 31 28 28 28 29 30 30 29 30 32 33 34 34 34 35 35 35 34 34 34 34 34 34 34 34 34 34 34 34 34 34
32 33 32 32 32 32 31 31 32 34 34 35 34 33 31 29 29 29 31 31 30 31 32 32 33 34 35 34 35 34 34 34 34 34 34 34 34 34 34 34 34 35 35 35
32 33 32 32 31 32 32 31 31 32 32 33 33 33 32 33 32 31 32 32 31 31 32 33 33 34 34 34 34 34 34 34 34 35 35 35 35 35 35 35 35 36 36 35
31 32 32 31 31 31 31 30 30 30 30 31 32 32 31 32 33 33 32 32 32 31 31 32 33 34 34 34 34 33 33 34 35 35 35 36 36 36 36 36 36 36 36 36
30 31 31 30 29 30 29 28 28 28 28 28 29 29 30 30 32 33 33 32 31 31 31 32 33 33 34 35 34 34 34 34 35 36 36 37 36 37 37 36 36 36 36 37
27 28 29 29 29 29 28 27 27 28 28 28 29 29 29 29 30 31 31 31 31 31 32 33 34 34 34 35 35 34 34 34 35 36 36 36 37 36 36 36 36 37 37 38
25 25 26 27 27 27 27 26 26 27 28 28 29 29 29 30 30 30 30 30 30 31 32 33 34 34 34 35 35 35 35 34 34 35 35 35 35 35 35 36 36 36 37 38
24 25 26 26 27 27 27 27 27 28 28 28 29 30 30 30 30 30 30 31 32 32 32 33 33 34 34 35 35 36 35 35 35 34 34 35 35 35 35 35 36 36 36 37
24 24 24 24 25 25 25 27 28 28 28 28 28 28 29 29 29 30 30 30 31 32 32 32 33 33 34 35 35 36 36 35 35 35 35 36 35 35 35 35 35 35 35 36
24 24 24 24 24 24 25 26 27 28 29 29 30 30 30 30 29 29 30 30 31 32 32 33 33 34 35 35 36 37 37 36 36 36 36 36 35 35 35 35 35 35 35 36
23 24 24 24 24 24 25 26 26 27 28 29 30 30 30 30 31 31 30 30 30 31 32 32 33 34 35 35 36 37 38 37 36 35 35 35 35 35 35 35 35 36 37 37
23 24 25 25 24 25 26 26 25 26 27 28 29 29 29 30 30 30 31 30 30 31 31 32 32 32 33 34 34 35 36 36 35 35 34 35 35 35 35 35 36 36 36 37
23 23 23 24 24 25 25 26 25 24 25 26 27 27 27 28 28 29 29 30 30 30 30 31 31 31 31 31 31 32 33 34 34 34 34 34 35 35 35 36 36 36 36 36
Wind_Direction
275 273 272 273 273 273 272 271 270 269 268 266 265 263 262 262 261 261 261 261 260 260 260 260 259 260 260 262 263 260 260 260 260 259 258 257 257 256 254 253 251 250 250 249
275 274 274 273 273 272 271 271 270 268 267 267 265 263 262 262 261 260 259 258 259 258 258 258 259 260 260 262 261 260 260 260 261 259 258 258 258 257 255 255 252 250 250 249
277 277 275 273 272 271 270 270 269 268 267 267 266 264 263 263 261 259 258 258 258 259 259 258 259 260 260 261 259 260 260 260 261 259 258 258 260 259 257 256 254 252 252 251
277 276 275 274 273 272 271 270 269 268 267 267 266 266 262 263 262 260 259 258 257 258 259 259 260 260 260 260 258 258 260 260 260 260 260 261 260 260 258 256 254 254 255 253
279 276 275 274 273 272 272 270 269 268 267 267 266 267 264 264 263 262 261 259 258 257 258 259 259 259 259 258 257 258 258 259 259 260 261 262 262 260 258 257 255 255 255 253
279 277 275 274 273 271 270 269 268 267 267 266 266 267 266 265 264 263 261 259 257 256 257 257 257 257 258 257 257 258 258 259 259 260 261 262 262 261 260 259 259 256 254 253
278 275 274 272 270 269 269 269 268 268 267 266 267 266 266 266 266 263 260 258 256 256 256 256 255 257 257 258 258 258 259 259 259 260 260 261 262 261 263 262 259 257 254 253
278 276 274 272 270 269 268 268 268 269 268 268 266 266 267 268 267 264 261 259 256 255 255 254 254 256 257 257 258 258 258 259 260 260 259 260 261 261 263 263 260 258 256 255
278 276 274 272 269 267 266 265 267 269 269 268 267 266 266 266 265 264 262 260 257 255 254 254 255 256 257 257 257 257 258 260 261 261 259 258 259 260 261 261 260 260 258 257
277 275 272 270 268 265 265 265 265 266 268 269 268 266 265 265 266 265 263 260 258 254 253 254 255 256 256 257 257 256 258 260 261 261 259 259 259 259 260 259 258 258 257 256
276 273 270 268 266 264 262 262 262 262 263 266 267 266 266 266 266 265 262 259 257 255 252 253 253 255 257 257 258 257 258 260 261 261 261 260 259 259 259 260 260 259 259 258
275 273 270 268 267 265 262 262 260 259 259 261 264 263 264 265 264 262 261 259 257 255 253 253 254 254 256 257 259 258 258 259 259 260 261 261 260 259 260 260 261 261 260 259
276 273 272 269 267 265 262 260 259 258 257 258 261 261 262 263 262 260 259 259 257 255 254 255 255 256 257 257 258 258 258 259 259 259 261 261 260 261 261 261 261 260 260 260
273 271 270 271 269 266 264 261 259 256 255 256 257 259 258 257 256 257 258 258 259 257 256 256 256 256 257 257 257 257 258 258 258 260 261 261 261 262 262 262 261 261 260 259
271 269 269 268 268 265 263 262 260 257 256 257 258 257 256 255 254 254 255 257 258 257 258 258 258 258 257 257 256 257 258 257 258 259 260 260 262 263 263 263 262 261 260 260
270 268 267 266 266 265 263 262 261 259 258 258 257 257 256 254 254 254 255 256 256 256 257 258 258 259 259 258 258 259 259 259 259 259 260 261 263 263 264 263 262 261 260 260
268 267 266 265 265 265 263 260 259 259 259 259 259 258 257 254 254 255 255 255 255 255 255 256 256 257 258 259 259 260 259 260 260 260 261 261 262 263 264 263 261 260 260 259
270 267 266 265 264 263 262 261 259 260 260 261 261 260 259 257 255 256 256 257 255 254 254 255 256 256 257 258 258 258 259 260 261 261 262 262 263 263 263 262 260 261 261 260
272 268 265 264 263 262 260 259 258 259 259 260 260 260 259 258 255 256 255 256 256 255 255 256 256 257 258 259 258 257 258 260 261 262 263 264 264 264 264 263 261 262 262 262
272 269 266 264 265 264 261 260 259 258 258 257 258 258 259 258 258 258 259 258 257 257 258 258 258 258 259 259 258 258 259 260 261 262 263 264 264 264 264 263 262 262 263 263
270 267 267 266 266 265 263 261 260 259 259 259 259 259 259 260 261 261 262 261 261 261 260 260 260 260 260 260 259 259 259 260 262 263 263 264 264 264 263 263 262 263 263 264
274 271 270 269 266 264 264 263 260 260 260 260 260 260 260 260 261 262 262 263 262 262 262 262 262 261 261 261 261 261 260 261 263 264 264 264 263 263 263 262 263 264 265 266
274 272 272 270 268 265 264 263 262 261 260 260 260 259 259 259 260 261 262 263 264 263 264 265 266 265 264 264 263 263 262 262 264 264 264 263 262 262 263 263 263 265 267 268
275 272 271 270 268 266 264 263 264 262 261 260 259 259 260 260 261 262 264 265 265 266 267 268 268 268 267 265 265 264 264 264 264 264 264 263 262 262 263 264 265 265 267 268
279 276 272 270 270 268 267 266 266 266 264 262 261 259 259 260 261 262 264 265 266 268 268 269 269 269 268 267 266 265 265 265 265 264 263 263 263 262 263 264 265 266 267 268
281 280 277 275 271 269 268 267 266 268 266 264 262 261 261 262 262 262 262 264 266 267 268 269 269 269 268 267 266 266 266 266 266 265 264 264 264 264 264 265 265 265 266 268
Height
5727 5727 5727 5726 5725 5724 5723 5722 5721 5722 5719 5718 5719 5721 5721 5721 5721 5722 5722 5722 5723 5723 5723 5724 5724 5724 5725 5726 5726 5726 5727 5728 5728 5729 5730 5731 5732 5733 5734 5735 5736 5737 5739 5741
5718 5718 5718 5716 5714 5713 5712 5711 5711 5711 5709 5708 5708 5710 5711 5711 5711 5712 5712 5713 5714 5715 5715 5715 5716 5716 5717 5718 5718 5718 5719 5720 5721 5721 5722 5723 5724 5724 5725 5726 5727 5729 5731 5733
5708 5710 5707 5705 5704 5703 5702 5701 5701 5700 5699 5697 5697 5699 5701 5701 5701 5702 5703 5704 5705 5706 5707 5707 5708 5708 5709 5709 5710 5711 5711 5712 5713 5713 5714 5715 5716 5716 5717 5718 5719 5721 5723 5725
5698 5698 5696 5694 5693 5692 5691 5691 5690 5688 5687 5687 5687 5686 5691 5691 5690 5691 5693 5694 5696 5697 5698 5699 5699 5699 5700 5701 5701 5702 5703 5704 5705 5705 5706 5707 5708 5709 5709 5710 5711 5712 5714 5715
5687 5686 5685 5683 5683 5681 5681 5680 5678 5677 5676 5676 5677 5675 5680 5680 5681 5682 5683 5685 5686 5687 5688 5689 5690 5690 5691 5691 5693 5694 5695 5696 5696 5697 5698 5698 5699 5700 5701 5701 5703 5704 5705 5706
5676 5674 5673 5673 5672 5670 5669 5669 5667 5666 5665 5665 5668 5666 5668 5670 5671 5673 5673 5675 5676 5678 5679 5679 5680 5681 5682 5682 5684 5685 5686 5687 5688 5689 5689 5690 5691 5691 5692 5692 5693 5695 5696 5697
5665 5663 5662 5661 5661 5660 5659 5658 5657 5655 5654 5655 5658 5655 5658 5661 5661 5662 5663 5664 5666 5667 5669 5670 5671 5672 5673 5674 5675 5676 5677 5678 5679 5680 5681 5681 5682 5682 5683 5683 5684 5685 5686 5688
5652 5652 5651 5650 5649 5649 5648 5648 5648 5646 5645 5646 5647 5646 5650 5651 5651 5652 5653 5654 5655 5657 5659 5660 5661 5662 5663 5664 5665 5666 5668 5669 5670 5671 5671 5672 5673 5673 5674 5674 5675 5676 5677 5678
5640 5641 5640 5639 5638 5638 5637 5637 5638 5637 5635 5635 5636 5637 5639 5641 5641 5642 5643 5644 5646 5647 5648 5650 5651 5652 5653 5654 5656 5657 5658 5660 5660 5661 5662 5663 5663 5664 5665 5665 5666 5667 5668 5668
5628 5628 5629 5628 5628 5627 5627 5628 5627 5626 5625 5625 5626 5627 5630 5631 5632 5633 5634 5634 5635 5637 5638 5639 5641 5642 5643 5644 5646 5647 5649 5650 5651 5652 5653 5653 5654 5655 5656 5656 5657 5657 5658 5659
5617 5616 5617 5617 5616 5617 5618 5618 5617 5617 5617 5617 5617 5621 5621 5623 5623 5624 5625 5625 5626 5627 5628 5630 5631 5633 5634 5635 5636 5638 5639 5640 5641 5642 5644 5644 5645 5646 5646 5647 5647 5648 5649 5649
5607 5605 5605 5606 5607 5606 5607 5607 5608 5608 5608 5609 5609 5613 5613 5614 5614 5615 5616 5616 5617 5618 5619 5620 5622 5623 5625 5626 5627 5628 5630 5631 5632 5633 5634 5635 5636 5636 5637 5638 5638 5638 5639 5640
5596 5595 5595 5595 5598 5597 5596 5597 5597 5598 5599 5600 5600 5605 5604 5605 5605 5606 5607 5607 5608 5609 5610 5611 5612 5614 5615 5617 5618 5619 5620 5622 5623 5624 5625 5625 5626 5627 5627 5628 5629 5629 5630 5630
5585 5585 5585 5586 5586 5586 5587 5588 5588 5589 5589 5590 5592 5594 5596 5596 5597 5597 5598 5599 5599 5600 5601 5602 5603 5604 5606 5607 5608 5609 5611 5612 5613 5614 5615 5616 5617 5617 5618 5618 5619 5619 5620 5621
5575 5575 5575 5575 5576 5576 5577 5578 5579 5579 5580 5581 5583 5584 5586 5587 5587 5588 5588 5589 5590 5591 5592 5593 5594 5595 5596 5597 5598 5600 5601 5602 5603 5604 5605 5606 5607 5607 5608 5608 5609 5610 5610 5611
5565 5565 5565 5565 5565 5565 5566 5568 5569 5570 5571 5571 5573 5574 5576 5576 5577 5578 5579 5580 5580 5581 5582 5583 5584 5585 5586 5587 5589 5590 5591 5592 5593 5594 5595 5596 5597 5597 5597 5598 5599 5600 5601 5601
5556 5555 5555 5556 5556 5555 5557 5559 5560 5560 5561 5562 5563 5566 5566 5567 5567 5568 5569 5570 5571 5572 5573 5574 5575 5576 5577 5578 5579 5580 5581 5582 5583 5584 5584 5585 5586 5587 5587 5588 5589 5590 5590 5591
5546 5546 5545 5545 5547 5546 5551 5551 5551 5551 5552 5553 5554 5555 5556 5557 5558 5559 5560 5560 5561 5562 5564 5565 5566 5567 5568 5569 5570 5571 5572 5572 5573 5573 5574 5575 5575 5576 5576 5577 5578 5579 5580 5580
5538 5537 5537 5537 5536 5537 5541 5542 5542 5543 5544 5545 5545 5546 5547 5548 5549 5549 5550 5551 5552 5553 5554 5555 5556 5557 5558 5559 5560 5561 5562 5562 5563 5563 5563 5564 5564 5565 5565 5566 5567 5568 5568 5569
5530 5529 5529 5529 5529 5530 5533 5533 5533 5534 5535 5536 5536 5537 5538 5539 5540 5542 5542 5542 5543 5544 5545 5545 5546 5547 5548 5549 5550 5551 5551 5552 5552 5553 5553 5553 5553 5554 5555 5555 5556 5557 5557 5558
5522 5521 5521 5521 5521 5522 5524 5524 5525 5527 5527 5527 5527 5528 5529 5530 5532 5533 5532 5533 5534 5534 5535 5536 5536 5537 5538 5538 5539 5540 5541 5541 5542 5542 5542 5542 5542 5543 5544 5544 5545 5546 5546 5546
5515 5514 5514 5514 5514 5517 5515 5515 5517 5517 5517 5518 5519 5519 5520 5521 5522 5523 5523 5523 5524 5525 5525 5526 5526 5527 5527 5528 5529 5530 5530 5531 5531 5531 5531 5531 5531 5532 5533 5534 5534 5534 5535 5535
5507 5508 5507 5507 5508 5507 5506 5506 5507 5507 5508 5509 5510 5511 5511 5512 5513 5513 5514 5514 5515 5515 5516 5516 5516 5517 5517 5517 5518 5519 5519 5519 5520 5520 5520 5520 5520 5521 5522 5523 5523 5524 5524 5524
5500 5499 5499 5499 5499 5498 5498 5498 5498 5498 5499 5500 5501 5502 5502 5503 5504 5504 5505 5505 5505 5505 5506 5506 5506 5506 5506 5506 5506 5507 5507 5508 5508 5508 5509 5509 5510 5510 5511 5511 5512 5512 5512 5512
5493 5492 5491 5490 5490 5490 5490 5490 5490 5490 5490 5491 5491 5492 5493 5493 5494 5495 5495 5495 5496 5496 5496 5496 5496 5496 5496 5496 5496 5496 5496 5496 5497 5497 5498 5498 5499 5499 5500 5500 5500 5500 5501 5500
5485 5484 5483 5483 5482 5482 5482 5481 5481 5481 5481 5482 5482 5483 5483 5484 5485 5485 5486 5486 5486 5486 5486 5486 5486 5486 5486 5486 5486 5486 5486 5486 5486 5487 5487 5488 5488 5488 5489 5489 5489 5489 5489 5489